Weather in Mozharka

Russia / Krasnoyarsk Krai     53°57′51″N   93°20′21″E
temp.,
°C
wind,
m/s
gust,
m/s
humid.,
%
clouds,
%
prec.,
mm/h
press.,
hPa
HPBL,
m
17 may, tue
tue1701:00+11se009137 0.3 101510
04:00+11e119398 0.0 101512
07:00+13ese11855 0.1 1015156
10:00+20sse225448 0.0 1014787
13:00+24sw1235100 0.0 10122613
16:00+22e224159 0.0 10111079
19:00+20ese225194 0.0 101141
22:00+15e11664 0.0 101211
18 may, wed
wed1801:00+12e11775 0.0 101311
04:00+10e11835 0.0 101310
07:00+14e11665 0.0 1014144
10:00+22sse234251 0.0 1013700
13:00+26sw332988 0.0 10122430
16:00+27sw2326100 0.0 10102557
19:00+24nw004159 0.0 101111
22:00+17ese115682 0.0 101211
19 may, thu
thu1901:00+14e116568 0.0 101310
04:00+12ene117266 0.0 101311
07:00+16ene126055 0.0 1013130
10:00+23e2340100 0.0 1011483
13:00+28ese3427100 0.0 10081363
16:00+31sw25195 0.0 10053442
19:00+27s113390 0.0 100413
22:00+18ese116694 0.2 101017
20 may, fri
fri2001:00+14s228086 0.2 101235
04:00+12s119228 0.3 101318
07:00+15s128345 0.4 1015195
10:00+19wnw4558100 1.2 10151048
13:00+19w4949100 1.8 10161626
16:00+18ssw364276 0.0 10161565
19:00+18se244862 0.0 1016348
22:00+12ese11755 0.0 101814
21 may, sat
sat2101:00+9e119026 0.0 101810
04:00+8ese2193100 0.0 101819
07:00+12e1273100 0.0 1018209
10:00+19ese234472 0.0 1016674
13:00+24ese1226100 0.0 10131632
16:00+26ese122019 0.0 10101562
19:00+22ne25371 0.0 1009152
22:00+15ene22490 0.0 100927